Terminal Aerodrome Forecast
Issued by NWS Houston/Galveston, TX

Home | Current Version | Previous Version | Text Only | Print | Product List | Glossary On
Versions: 1 2 3 4 5 6 7 8 9 10 11 12 13 14 15 16 17 18 19 20 21 22 23 24 25 26 27 28 29 30
000
FTUS44 KHGX 280520
TAFGLS
TAF
KGLS 280520Z 2806/2906 VRB04KT P6SM SKC
     FM281500 12008KT P6SM FEW020
     FM281900 15011KT P6SM SCT020=

USA.gov is the U.S. government's official web portal to all federal, state and local government web resources and services.